Weather History for Clinton, MO

Change the Weather History Date:

Saturday, September 8, 2012

  Actual Average (KSZL) Record (KSZL)
Temperature  
Mean Temperature 64 °F -  
Max Temperature 75 °F 81 °F 98 °F (2002)
Min Temperature 53 °F 60 °F 48 °F (2011)
Degree Days  
Heating Degree Days 1    
Growing Degree Days 14 (Base 50)    
Moisture  
Dew Point 51 °F    
Average Humidity 65    
Maximum Humidity 100    
Minimum Humidity 36    
Precipitation  
Precipitation 0.00 in - - ()
Sea Level Pressure  
Sea Level Pressure 30.09 in    
Wind  
Wind Speed 6 mph (NW)    
Max Wind Speed 15 mph    
Max Gust Speed 21 mph    
Visibility 10 miles    
Events      
Averages and records for this station are not official NWS values.
T = Trace of Precipitation, MM = Missing Value Source: NWS Daily Summary

Daily Weather History Graph

Daily Weather History Graph

Search for Another Location

Airport:

Trip Planner

Search our weather history database for the weather conditions in past years. The results will help you decide how hot, cold, wet, or windy it might be!

Date:

Astronomy

Sep. 08, 2012 Rise Set
Actual Time 6:50 AM CDT 7:33 PM CDT
Civil Twilight 6:23 AM CDT 7:59 PM CDT
Nautical Twilight 5:52 AM CDT 8:31 PM CDT
Astronomical Twilight 5:19 AM CDT 9:03 PM CDT
Moon No Moon Rise 2:27 PM CDT (9/8)
Length of Visible Light 13h 35m
Length of Day
12h 42m
Waning Gibbous, 48% of the Moon is Illuminated
Sep 8
Waning Gibbous
Sep 15
New
Sep 22
First Quarter
Sep 29
Full
Oct 8
Last Quarter

Hourly Weather History & Observations

Time (CDT) Temp. Dew Point Humidity Pressure Visibility Wind Dir Wind Speed Gust Speed Precip Events Conditions
12:15 AM 60.8 °F 57.2 °F 88% 30.05 in 10.0 mi NW 3.5 mph - N/A   Unknown
12:35 AM 59.0 °F 57.2 °F 94% 30.06 in 9.0 mi Calm Calm - N/A   Unknown
12:55 AM 59.0 °F 57.2 °F 94% 30.07 in 9.0 mi Calm Calm - N/A   Unknown
1:15 AM 59.0 °F 57.2 °F 94% 30.07 in 10.0 mi NW 3.5 mph - N/A   Unknown
1:35 AM 57.2 °F 57.2 °F 100% 30.07 in 10.0 mi NW 3.5 mph - N/A   Unknown
1:55 AM 57.2 °F 57.2 °F 100% 30.07 in 9.0 mi NW 4.6 mph - N/A   Unknown
2:15 AM 57.2 °F 57.2 °F 100% 30.08 in 9.0 mi NW 4.6 mph - N/A   Unknown
2:35 AM 57.2 °F 55.4 °F 94% 30.08 in 10.0 mi NW 4.6 mph - N/A   Unknown
3:15 AM 57.2 °F 55.4 °F 94% 30.08 in 10.0 mi North 6.9 mph - N/A   Unknown
3:35 AM 57.2 °F 53.6 °F 88% 30.08 in 10.0 mi North 6.9 mph - N/A   Unknown
3:55 AM 55.4 °F 53.6 °F 94% 30.08 in 10.0 mi North 5.8 mph - N/A   Unknown
4:15 AM 55.4 °F 53.6 °F 94% 30.08 in 10.0 mi NNW 5.8 mph - N/A   Unknown
4:35 AM 55.4 °F 53.6 °F 94% 30.08 in 10.0 mi NNW 6.9 mph - N/A   Unknown
4:55 AM 55.4 °F 51.8 °F 88% 30.09 in 10.0 mi NNW 6.9 mph - N/A   Unknown
5:15 AM 55.4 °F 51.8 °F 88% 30.08 in 10.0 mi NNW 6.9 mph - N/A   Unknown
5:35 AM 55.4 °F 51.8 °F 88% 30.09 in 10.0 mi NW 5.8 mph - N/A   Unknown
5:55 AM 55.4 °F 51.8 °F 88% 30.09 in 10.0 mi NNW 6.9 mph - N/A   Unknown
6:15 AM 55.4 °F 51.8 °F 88% 30.09 in 10.0 mi NNW 6.9 mph - N/A   Unknown
6:35 AM 55.4 °F 51.8 °F 88% 30.09 in 10.0 mi NNW 8.1 mph - N/A   Unknown
6:55 AM 55.4 °F 50.0 °F 82% 30.10 in 10.0 mi NNW 6.9 mph - N/A   Unknown
7:15 AM 53.6 °F 50.0 °F 88% 30.10 in 8.0 mi North 6.9 mph - N/A   Unknown
7:35 AM 55.4 °F 50.0 °F 82% 30.11 in 9.0 mi NNW 6.9 mph - N/A   Unknown
7:55 AM 55.4 °F 51.8 °F 88% 30.12 in 9.0 mi North 6.9 mph - N/A   Unknown
8:15 AM 57.2 °F 51.8 °F 82% 30.13 in 9.0 mi North 9.2 mph - N/A   Unknown
8:35 AM 59.0 °F 51.8 °F 77% 30.13 in 9.0 mi North 6.9 mph - N/A   Unknown
8:55 AM 60.8 °F 51.8 °F 72% 30.13 in 10.0 mi North 9.2 mph - N/A   Unknown
9:15 AM 62.6 °F 51.8 °F 68% 30.14 in 9.0 mi North 10.4 mph - N/A   Unknown
9:35 AM 62.6 °F 48.2 °F 59% 30.14 in 10.0 mi North 9.2 mph - N/A   Unknown
9:55 AM 64.4 °F 50.0 °F 59% 30.14 in 10.0 mi North 9.2 mph - N/A   Unknown
10:15 AM 66.2 °F 50.0 °F 56% 30.14 in 10.0 mi North 8.1 mph - N/A   Unknown
10:35 AM 66.2 °F 48.2 °F 52% 30.15 in 9.0 mi North 12.7 mph - N/A   Unknown
10:55 AM 68.0 °F 48.2 °F 49% 30.15 in 10.0 mi NNW 12.7 mph 18.4 mph N/A   Unknown
11:15 AM 69.8 °F 48.2 °F 46% 30.15 in 8.0 mi NNW 13.8 mph - N/A   Unknown
11:35 AM 69.8 °F 46.4 °F 43% 30.15 in 10.0 mi NNW 13.8 mph 19.6 mph N/A   Unknown
11:55 AM 69.8 °F 48.2 °F 46% 30.14 in 10.0 mi NNW 13.8 mph 19.6 mph N/A   Unknown
12:15 PM 71.6 °F 46.4 °F 41% 30.14 in 10.0 mi NW 15.0 mph 20.7 mph N/A   Unknown
12:35 PM 71.6 °F 46.4 °F 41% 30.14 in 10.0 mi NNW 13.8 mph 19.6 mph N/A   Unknown
12:55 PM 71.6 °F 46.4 °F 41% 30.13 in 10.0 mi NW 11.5 mph 17.3 mph N/A   Unknown
1:15 PM 73.4 °F 46.4 °F 38% 30.12 in 10.0 mi NW 9.2 mph 17.3 mph N/A   Unknown
1:35 PM 73.4 °F 48.2 °F 41% 30.12 in 10.0 mi NNW 11.5 mph - N/A   Unknown
1:55 PM 73.4 °F 46.4 °F 38% 30.11 in 9.0 mi NW 10.4 mph - N/A   Unknown
2:15 PM 73.4 °F 46.4 °F 38% 30.10 in 10.0 mi NW 8.1 mph - N/A   Unknown
2:35 PM 73.4 °F 46.4 °F 38% 30.09 in 10.0 mi NW 12.7 mph - N/A   Unknown
2:55 PM 75.2 °F 48.2 °F 38% 30.08 in 10.0 mi WNW 11.5 mph - N/A   Unknown
3:15 PM 75.2 °F 48.2 °F 38% 30.08 in 9.0 mi WNW 11.5 mph - N/A   Unknown
3:35 PM 75.2 °F 48.2 °F 38% 30.07 in 9.0 mi NNW 9.2 mph - N/A   Unknown
3:55 PM 75.2 °F 48.2 °F 38% 30.07 in 9.0 mi WNW 10.4 mph 16.1 mph N/A   Unknown
4:15 PM 75.2 °F 48.2 °F 38% 30.06 in 10.0 mi West 9.2 mph - N/A   Unknown
4:35 PM 75.2 °F 48.2 °F 38% 30.05 in 9.0 mi NW 9.2 mph - N/A   Unknown
4:55 PM 75.2 °F 48.2 °F 38% 30.04 in 9.0 mi WNW 8.1 mph - N/A   Unknown
5:15 PM 75.2 °F 48.2 °F 38% 30.04 in 9.0 mi WNW 5.8 mph - N/A   Unknown
5:35 PM 75.2 °F 46.4 °F 36% 30.04 in 10.0 mi West 10.4 mph - N/A   Unknown
5:55 PM 75.2 °F 48.2 °F 38% 30.04 in 9.0 mi WNW 6.9 mph - N/A   Unknown
6:15 PM 75.2 °F 48.2 °F 38% 30.04 in 10.0 mi WNW 9.2 mph - N/A   Unknown
6:35 PM 73.4 °F 48.2 °F 41% 30.04 in 9.0 mi WNW 9.2 mph - N/A   Unknown
6:55 PM 73.4 °F 48.2 °F 41% 30.04 in 9.0 mi WNW 6.9 mph - N/A   Unknown
7:15 PM 71.6 °F 48.2 °F 43% 30.04 in 10.0 mi WNW 5.8 mph - N/A   Unknown
7:35 PM 69.8 °F 48.2 °F 46% 30.03 in 10.0 mi West 3.5 mph - N/A   Unknown
7:55 PM 66.2 °F 50.0 °F 56% 30.03 in 10.0 mi Calm Calm - N/A   Unknown
8:15 PM 66.2 °F 50.0 °F 56% 30.04 in 10.0 mi Calm Calm - N/A   Unknown
8:35 PM 62.6 °F 51.8 °F 68% 30.04 in 10.0 mi WSW 3.5 mph - N/A   Unknown
8:55 PM 62.6 °F 51.8 °F 68% 30.04 in 10.0 mi Calm Calm - N/A   Unknown
9:15 PM 60.8 °F 51.8 °F 72% 30.05 in 10.0 mi Calm Calm - N/A   Unknown
9:55 PM 60.8 °F 55.4 °F 82% 30.05 in 9.0 mi Calm Calm - N/A   Unknown
10:15 PM 57.2 °F 53.6 °F 88% 30.05 in 10.0 mi Calm Calm - N/A   Unknown
10:55 PM 59.0 °F 53.6 °F 82% 30.05 in 10.0 mi Calm Calm - N/A   Unknown
11:55 PM 60.8 °F 53.6 °F 77% 30.04 in 10.0 mi SSW 5.8 mph - N/A   Unknown